Showing default

A-1 (ASTERIX), 1778

Orbit data source: Space-Track

A-1 (ASTERIX), 1778 is a payload satellite owned by CNES (FR) in LEO that was launched on Fri, 26 Nov 1965 UTC via a DIAMANT A launch vehicle from the Hamma Guira Space Track Range (HGSTR). Payload-class satellites include a variety of spacecraft equipped with specific instruments for various scientific and technological missions. These include communications satellites like Starlink; space stations such as the ISS; scientific satellites like the Hubble; Earth observation satellites from companies like Planet Labs, Umbra, and HawkEye 360; GPS; miniature CubeSats for education and research; and military/defense satellites.

Loading next visibility...
Identifier
1778, 1965-096A
Orbit
LEO
Country
Flag of FRFR
Related business
Manufacturer
CNES
Mission
Spacecraft
Bus & Motor
A-1, Unknown motor
Mass
42 kg wet, 42 kg dry
Launch date (UTC)
1965-11-26 (61 years ago)
Launch vehicle
DIAMANT A
Launch site
Hamma Guira Space Track Range (HGSTR)
Object type
Payload
Rocket body
Debris
Shape & HBR
POLY, 1.1 m
Radar Cross Section
Medium (>0.1 m² and <1 m²)

Expand to show TLE details & history
Last TLE update: 16 hours ago

TLE from 16 hours ago
0 A-1 (ASTERIX)
1 01778U 65096A   26262.91179715  .00000338  00000-0  91384-4 0  9990
2 01778  34.2536 136.0706 0738873 148.9640 215.6890 13.49921758977596
Epoch: 2026-09-19T21:52Z
TLE epoch observation values (Epoch: 2026-09-19T21:52:59.273Z)
Latitude
-0.00001°
Longitude
169.01008°
Altitude
1,531.174 km
Speed
6.88 km/s
True Right ascension
09h 04m 16s
True Declination
0° 00' 00"
Sunlit
Object was in daylight at epoch
Visualization orbit readout
Latitude
Unknown
Longitude
Unknown
Altitude
Unknown
Speed
Unknown
Apparent Right ascension
Unknown
Apparent Declination
Unknown
Sunlit
N/A
Visualization observer readout
Local Sidereal Time
06:48:36
Azimuth
Unknown
Elevation
Unknown
Doppler factor
Unknown
Orbital elements
Apogee altitude
1,626.422 km
Perigee altitude
524.937 km
Semi-major axis
7,453.817 km
Eccentricity
0.07389
Inclination
34.2536°
RAAN
136.0706°
Arg. of periapsis
148.964°
True anomaly
211.09995°
Mean anomaly
215.689°
Eccentric anomaly
213.36099°
Mean motion
3.37268 °/min
Orbital period
106.74 mins
BSTAR
0.000091384
Loading maneuver chart data...
Computing Atmospheric mass density...
Loading historical data...
Loading historical data...
Loading historical data...
Loading historical data...
Loading historical data...
Loading historical data...
Loading historical data...
Other satellites on launch #96 in the year 1965 (1965-11-26 UTC)

Documentation

Showing up to 5 results
|